Latest Weather Observations for St Kilda Harbour RMYS

IDV60901

Issued at 3:41 pm EDT Friday 24 January 2020 (issued every 10 minutes, with the page automatically refreshed every 10 minutes)

About weather observations | Map of Melbourne area stations | Latest observations for Melbourne area | Other Formats
Station Details ID: 086220 Name: ST KILDA HARBOUR - RMYS Lat: -37.86 Lon: 144.96 Height: 6.4 m
Data from the previous 72 hours. | See also: Recent months at St Kilda Harbour RMYS
Date/Time
EDT
Temp
°C
App
Temp
°C
Dew
Point
°C
Rel
Hum
%
Delta-T
°C
Wind Press
QNH
hPa
Press
MSL
hPa
Rain since
9am
mm
Dir  Spd
km/h
Gust
km/h
Spd
kts
Gust
kts
24/03:30pm - - - - - W 26 33 14 18 - - -
24/03:00pm - - - - - WSW 28 33 15 18 - - -
24/02:30pm - - - - - WSW 26 35 14 19 - - -
24/02:00pm - - - - - W 19 35 10 19 - - -
24/01:30pm - - - - - W 22 30 12 16 - - -
24/01:00pm - - - - - WSW 15 20 8 11 - - -
24/12:30pm - - - - - WSW 13 20 7 11 - - -
24/12:00pm - - - - - W 19 24 10 13 - - -
24/11:30am - - - - - WNW 22 30 12 16 - - -
24/11:00am - - - - - WNW 24 33 13 18 - - -
24/10:30am - - - - - NW 19 28 10 15 - - -
24/10:00am - - - - - NW 24 32 13 17 - - -
24/09:30am - - - - - NW 24 30 13 16 - - -
24/09:00am - - - - - NW 20 28 11 15 - - -
24/08:30am - - - - - NNW 20 30 11 16 - - -
24/08:00am - - - - - NNW 19 26 10 14 - - -
24/07:30am - - - - - N 19 26 10 14 - - -
24/07:00am - - - - - N 9 20 5 11 - - -
24/06:30am - - - - - NNE 7 9 4 5 - - -
24/06:00am - - - - - N 11 17 6 9 - - -
24/05:30am - - - - - N 11 17 6 9 - - -
24/05:00am - - - - - NNW 15 19 8 10 - - -
24/04:30am - - - - - NNW 15 19 8 10 - - -
24/04:00am - - - - - N 9 13 5 7 - - -
24/03:30am - - - - - N 11 15 6 8 - - -
24/03:00am - - - - - NNW 17 22 9 12 - - -
24/02:30am - - - - - NNW 13 19 7 10 - - -
24/02:00am - - - - - NNW 11 17 6 9 - - -
24/01:30am - - - - - WNW 20 26 11 14 - - -
24/01:00am - - - - - W 19 24 10 13 - - -
24/12:30am - - - - - W 17 20 9 11 - - -
24/12:00am - - - - - W 22 28 12 15 - - -
 
Date/Time
EDT
Temp
°C
App
Temp
°C
Dew
Point
°C
Rel
Hum
%
Delta-T
°C
Wind Press
QNH
hPa
Press
MSL
hPa
Rain since
9am
mm
Dir  Spd
km/h
Gust
km/h
Spd
kts
Gust
kts
23/11:30pm - - - - - WSW 35 43 19 23 - - -
23/11:00pm - - - - - W 32 43 17 23 - - -
23/10:30pm - - - - - WSW 30 37 16 20 - - -
23/10:00pm - - - - - WSW 35 39 19 21 - - -
23/09:30pm - - - - - W 30 43 16 23 - - -
23/09:00pm - - - - - WSW 39 46 21 25 - - -
23/08:30pm - - - - - WSW 41 48 22 26 - - -
23/08:00pm - - - - - WSW 48 57 26 31 - - -
23/07:30pm - - - - - W 44 57 24 31 - - -
23/07:00pm - - - - - W 43 54 23 29 - - -
23/06:57pm - - - - - W 46 67 25 36 - - -
23/06:30pm - - - - - W 48 57 26 31 - - -
23/06:06pm - - - - - WSW 37 57 20 31 - - -
23/06:00pm - - - - - WSW 41 50 22 27 - - -
23/05:30pm - - - - - W 39 46 21 25 - - -
23/05:00pm - - - - - W 39 50 21 27 - - -
23/04:39pm - - - - - WNW 46 63 25 34 - - -
23/04:30pm - - - - - NW 46 59 25 32 - - -
23/04:13pm - - - - - NW 44 63 24 34 - - -
23/04:00pm - - - - - WNW 46 63 25 34 - - -
23/03:39pm - - - - - WNW 43 63 23 34 - - -
23/03:30pm - - - - - WNW 44 54 24 29 - - -
23/03:13pm - - - - - NW 39 57 21 31 - - -
23/03:00pm - - - - - NW 44 54 24 29 - - -
23/02:30pm - - - - - NW 39 54 21 29 - - -
23/02:00pm - - - - - NNW 32 46 17 25 - - -
23/01:30pm - - - - - NW 48 69 26 37 - - -
23/01:06pm - - - - - NW 44 65 24 35 - - -
23/01:00pm - - - - - NW 50 65 27 35 - - -
23/12:30pm - - - - - NNW 44 65 24 35 - - -
23/12:06pm - - - - - NNW 43 61 23 33 - - -
23/12:00pm - - - - - NNW 37 52 20 28 - - -
23/11:30am - - - - - NNW 33 57 18 31 - - -
23/11:28am - - - - - NNW 32 57 17 31 - - -
23/11:00am - - - - - N 26 44 14 24 - - -
23/10:30am - - - - - N 19 26 10 14 - - -
23/10:00am - - - - - NNW 20 28 11 15 - - -
23/09:30am - - - - - NNW 15 19 8 10 - - -
23/09:00am - - - - - NNW 11 17 6 9 - - -
23/08:30am - - - - - NNW 15 20 8 11 - - -
23/08:00am - - - - - NNW 17 24 9 13 - - -
23/07:30am - - - - - NNE 15 20 8 11 - - -
23/07:00am - - - - - NNE 17 24 9 13 - - -
23/06:30am - - - - - NNE 17 24 9 13 - - -
23/06:00am - - - - - NNE 17 24 9 13 - - -
23/05:30am - - - - - NE 13 20 7 11 - - -
23/05:00am - - - - - NE 9 13 5 7 - - -
23/04:30am - - - - - W 17 20 9 11 - - -
23/04:00am - - - - - W 17 22 9 12 - - -
23/03:30am - - - - - WSW 26 32 14 17 - - -
23/03:00am - - - - - SW 30 37 16 20 - - -
23/02:30am - - - - - SW 26 32 14 17 - - -
23/02:00am - - - - - SSW 15 22 8 12 - - -
23/01:30am - - - - - SSW 19 24 10 13 - - -
23/01:00am - - - - - SSW 19 26 10 14 - - -
23/12:30am - - - - - SSE 15 20 8 11 - - -
23/12:00am - - - - - SE 20 26 11 14 - - -
 
Date/Time
EDT
Temp
°C
App
Temp
°C
Dew
Point
°C
Rel
Hum
%
Delta-T
°C
Wind Press
QNH
hPa
Press
MSL
hPa
Rain since
9am
mm
Dir  Spd
km/h
Gust
km/h
Spd
kts
Gust
kts
22/11:30pm - - - - - ESE 15 20 8 11 - - -
22/11:00pm - - - - - SSW 26 33 14 18 - - -
22/10:30pm - - - - - S 35 41 19 22 - - -
22/10:00pm - - - - - S 41 48 22 26 - - -
22/09:30pm - - - - - S 39 46 21 25 - - -
22/09:00pm - - - - - S 41 48 22 26 - - -
22/08:30pm - - - - - SSW 54 65 29 35 - - -
22/08:00pm - - - - - SSW 56 69 30 37 - - -
22/07:49pm - - - - - SW 48 70 26 38 - - -
22/07:44pm - - - - - WNW 32 59 17 32 - - -
22/07:43pm - - - - - WNW 30 46 16 25 - - -
22/07:41pm - - - - - NW 28 46 15 25 - - -
22/07:30pm - - - - - N 28 48 15 26 - - -
22/07:00pm - - - - - N 41 69 22 37 - - -
22/06:39pm - - - - - N 41 72 22 39 - - -
22/06:33pm - - - - - N 33 54 18 29 - - -
22/06:30pm - - - - - N 33 48 18 26 - - -
22/06:01pm - - - - - NNW 46 67 25 36 - - -
22/06:00pm - - - - - NNW 44 61 24 33 - - -
22/05:32pm - - - - - NNW 41 67 22 36 - - -
22/05:30pm - - - - - N 37 67 20 36 - - -
22/05:08pm - - - - - N 28 54 15 29 - - -
22/05:00pm - - - - - N 32 48 17 26 - - -
22/04:30pm - - - - - N 39 61 21 33 - - -
22/04:00pm - - - - - N 43 69 23 37 - - -
22/03:30pm - - - - - NNW 44 70 24 38 - - -
22/03:00pm - - - - - NNW 41 65 22 35 - - -
22/02:30pm - - - - - N 41 67 22 36 - - -
22/02:00pm - - - - - N 43 70 23 38 - - -
22/01:43pm - - - - - N 41 74 22 40 - - -
22/01:35pm - - - - - N 28 50 15 27 - - -
22/01:30pm - - - - - N 30 41 16 22 - - -
22/01:02pm - - - - - N 39 65 21 35 - - -
22/01:00pm - - - - - N 39 57 21 31 - - -
22/12:30pm - - - - - N 35 59 19 32 - - -
22/12:00pm - - - - - N 39 69 21 37 - - -
22/11:32am - - - - - N 37 57 20 31 - - -
22/11:30am - - - - - N 37 54 20 29 - - -
22/11:00am - - - - - NNE 44 67 24 36 - - -
22/10:33am - - - - - N 41 65 22 35 - - -
22/10:30am - - - - - N 41 57 22 31 - - -
22/10:00am - - - - - N 35 59 19 32 - - -
22/09:30am - - - - - NNE 32 50 17 27 - - -
22/09:01am - - - - - NNE 32 54 17 29 - - -
22/09:00am - - - - - NNE 30 48 16 26 - - -
22/08:53am - - - - - NNE 32 50 17 27 - - -
22/08:30am - - - - - N 28 43 15 23 - - -
22/08:00am - - - - - NNE 32 52 17 28 - - -
22/07:31am - - - - - NNE 32 52 17 28 - - -
22/07:30am - - - - - NNE 32 46 17 25 - - -
22/07:00am - - - - - NNE 26 35 14 19 - - -
22/06:30am - - - - - NNE 19 26 10 14 - - -
22/06:00am - - - - - NNE 15 20 8 11 - - -
22/05:30am - - - - - NNE 15 20 8 11 - - -
22/05:00am - - - - - NNE 13 19 7 10 - - -
22/04:30am - - - - - NNE 15 22 8 12 - - -
22/04:00am - - - - - NNE 17 22 9 12 - - -
22/03:30am - - - - - NE 15 20 8 11 - - -
22/03:00am - - - - - NNE 11 17 6 9 - - -
22/02:30am - - - - - NNE 9 13 5 7 - - -
22/02:00am - - - - - NNE 6 9 3 5 - - -
22/01:30am - - - - - NE 6 9 3 5 - - -
22/01:00am - - - - - ENE 4 6 2 3 - - -
22/12:30am - - - - - ENE 6 9 3 5 - - -
22/12:00am - - - - - ENE 6 9 3 5 - - -
 
Date/Time
EDT
Temp
°C
App
Temp
°C
Dew
Point
°C
Rel
Hum
%
Delta-T
°C
Wind Press
QNH
hPa
Press
MSL
hPa
Rain since
9am
mm
Dir  Spd
km/h
Gust
km/h
Spd
kts
Gust
kts
21/11:30pm - - - - - E 6 13 3 7 - - -
21/11:00pm - - - - - SE 11 13 6 7 - - -
21/10:30pm - - - - - ESE 9 13 5 7 - - -
21/10:00pm - - - - - SE 11 17 6 9 - - -
21/09:30pm - - - - - SE 13 20 7 11 - - -
21/09:00pm - - - - - ESE 19 24 10 13 - - -
21/08:30pm - - - - - SSE 19 24 10 13 - - -
21/08:00pm - - - - - S 28 35 15 19 - - -
21/07:30pm - - - - - S 30 35 16 19 - - -
21/07:00pm - - - - - S 30 35 16 19 - - -
21/06:30pm - - - - - S 28 33 15 18 - - -
21/06:00pm - - - - - S 28 32 15 17 - - -
21/05:30pm - - - - - S 26 32 14 17 - - -
21/05:00pm - - - - - S 28 32 15 17 - - -
21/04:30pm - - - - - S 28 32 15 17 - - -
21/04:00pm - - - - - S 26 30 14 16 - - -

Latest Capital City Observations: Canberra | Sydney | Melbourne | Brisbane | Adelaide | Perth | Hobart | Darwin

Other formats

Comma delimited format used in spreadsheet applications
http://www.bom.gov.au/fwo/IDV60901/IDV60901.95864.axf

JavaScript Object Notation format (JSON) in row-major order
http://www.bom.gov.au/fwo/IDV60901/IDV60901.95864.json

Data quality

Most of these data are generated automatically and are frequently updated. Quality checks on data are not normally performed. It is possible for incorrect values to appear. Refer to information at About Latest Weather Observations and please check the disclaimer before using these data.